TimeCST,TemperatureF,Dew PointF,Humidity,Sea Level PressureIn,VisibilityMPH,Wind Direction,Wind SpeedMPH,Gust SpeedMPH,PrecipitationIn,Events,Conditions,WindDirDegrees,DateUTC
12:13 AM,12.2,6.8,79,30.34,10.0,Calm,Calm,-,N/A,,Unknown,0,2012-11-27 06:13:00
12:33 AM,14.0,6.8,73,30.33,10.0,Calm,Calm,-,N/A,,Unknown,0,2012-11-27 06:33:00
12:53 AM,14.0,6.8,73,30.32,10.0,Calm,Calm,-,N/A,,Unknown,0,2012-11-27 06:53:00
1:13 AM,14.0,6.8,73,30.32,10.0,Calm,Calm,-,N/A,,Unknown,0,2012-11-27 07:13:00
1:33 AM,14.0,6.8,73,30.32,10.0,SW,3.5,-,N/A,,Unknown,220,2012-11-27 07:33:00
1:53 AM,14.0,6.8,73,30.32,10.0,SW,3.5,-,N/A,,Unknown,230,2012-11-27 07:53:00
2:13 AM,15.8,6.8,68,30.32,10.0,Calm,Calm,-,N/A,,Unknown,0,2012-11-27 08:13:00
2:33 AM,15.8,6.8,68,30.31,10.0,Calm,Calm,-,N/A,,Unknown,0,2012-11-27 08:33:00
2:53 AM,14.0,6.8,73,30.31,10.0,Calm,Calm,-,N/A,,Scattered Clouds,0,2012-11-27 08:53:00
3:13 AM,14.0,6.8,73,30.31,10.0,Calm,Calm,-,N/A,,Unknown,0,2012-11-27 09:13:00
3:33 AM,15.8,8.6,73,30.30,10.0,Calm,Calm,-,N/A,,Scattered Clouds,0,2012-11-27 09:33:00
3:53 AM,14.0,8.6,79,30.29,10.0,SSW,3.5,-,N/A,,Unknown,200,2012-11-27 09:53:00
4:13 AM,15.8,8.6,73,30.27,10.0,SSW,4.6,-,N/A,,Unknown,200,2012-11-27 10:13:00
4:33 AM,15.8,8.6,73,30.27,10.0,Calm,Calm,-,N/A,,Unknown,0,2012-11-27 10:33:00
4:53 AM,15.8,8.6,73,30.26,10.0,SSW,3.5,-,N/A,,Clear,200,2012-11-27 10:53:00
5:13 AM,15.8,8.6,73,30.26,10.0,SSW,4.6,-,N/A,,Clear,210,2012-11-27 11:13:00
5:33 AM,15.8,8.6,73,30.26,10.0,SW,3.5,-,N/A,,Clear,220,2012-11-27 11:33:00
5:53 AM,15.8,8.6,73,30.25,10.0,SSW,4.6,-,N/A,,Clear,210,2012-11-27 11:53:00
6:13 AM,15.8,8.6,73,30.25,10.0,SW,4.6,-,N/A,,Clear,220,2012-11-27 12:13:00
6:33 AM,15.8,8.6,73,30.24,10.0,SW,3.5,-,N/A,,Clear,220,2012-11-27 12:33:00
6:53 AM,15.8,8.6,73,30.24,10.0,SSW,3.5,-,N/A,,Clear,210,2012-11-27 12:53:00
7:13 AM,15.8,8.6,73,30.24,10.0,Calm,Calm,-,N/A,,Unknown,0,2012-11-27 13:13:00
7:33 AM,15.8,8.6,73,30.23,10.0,SSW,3.5,-,N/A,,Unknown,200,2012-11-27 13:33:00
7:53 AM,15.8,8.6,73,30.22,10.0,SSW,5.8,-,N/A,,Clear,200,2012-11-27 13:53:00
8:13 AM,17.6,10.4,73,30.22,7.0,South,5.8,-,N/A,,Clear,190,2012-11-27 14:13:00
8:33 AM,19.4,10.4,68,30.21,10.0,South,6.9,-,N/A,,Clear,180,2012-11-27 14:33:00
8:53 AM,19.4,10.4,68,30.20,10.0,SSW,6.9,-,N/A,,Clear,200,2012-11-27 14:53:00
9:13 AM,19.4,12.2,74,30.20,10.0,South,4.6,-,N/A,,Clear,190,2012-11-27 15:13:00
9:33 AM,21.2,12.2,68,30.19,10.0,SSW,6.9,-,N/A,,Clear,200,2012-11-27 15:33:00
9:53 AM,23.0,12.2,63,30.19,10.0,SSW,8.1,-,N/A,,Clear,200,2012-11-27 15:53:00
10:13 AM,24.8,14.0,64,30.19,10.0,SSW,6.9,-,N/A,,Mostly Cloudy,200,2012-11-27 16:13:00
10:33 AM,26.6,15.8,64,30.18,10.0,SSW,6.9,-,N/A,,Overcast,200,2012-11-27 16:33:00
10:53 AM,26.6,15.8,64,30.17,10.0,SSW,6.9,-,N/A,,Overcast,200,2012-11-27 16:53:00
11:13 AM,28.4,17.6,64,30.16,10.0,SSW,9.2,-,N/A,,Overcast,200,2012-11-27 17:13:00
11:33 AM,28.4,17.6,64,30.15,10.0,SSW,6.9,-,N/A,,Overcast,210,2012-11-27 17:33:00
11:53 AM,30.2,19.4,64,30.13,10.0,SSW,9.2,-,N/A,,Overcast,210,2012-11-27 17:53:00
12:13 PM,32.0,19.4,60,30.13,10.0,SW,8.1,-,N/A,,Overcast,220,2012-11-27 18:13:00
12:33 PM,35.6,21.2,56,30.12,10.0,SW,9.2,-,N/A,,Mostly Cloudy,230,2012-11-27 18:33:00
12:53 PM,35.6,21.2,56,30.11,10.0,SW,8.1,-,N/A,,Scattered Clouds,230,2012-11-27 18:53:00
1:13 PM,35.6,21.2,56,30.11,10.0,SW,4.6,-,N/A,,Mostly Cloudy,220,2012-11-27 19:13:00
1:33 PM,35.6,21.2,56,30.10,10.0,SW,6.9,-,N/A,,Overcast,220,2012-11-27 19:33:00
1:53 PM,35.6,23.0,60,30.08,10.0,South,10.4,-,N/A,,Overcast,190,2012-11-27 19:53:00
2:13 PM,37.4,23.0,56,30.08,10.0,SW,8.1,16.1,N/A,,Mostly Cloudy,220,2012-11-27 20:13:00
2:33 PM,37.4,23.0,56,30.08,10.0,SSW,9.2,-,N/A,,Mostly Cloudy,210,2012-11-27 20:33:00
2:53 PM,37.4,23.0,56,30.08,10.0,SW,10.4,18.4,N/A,,Overcast,230,2012-11-27 20:53:00
3:13 PM,37.4,23.0,56,30.08,10.0,SW,9.2,-,N/A,,Overcast,220,2012-11-27 21:13:00
3:33 PM,35.6,23.0,60,30.08,10.0,SW,9.2,-,N/A,,Scattered Clouds,230,2012-11-27 21:33:00
3:53 PM,35.6,21.2,56,30.09,10.0,SW,6.9,-,N/A,,Scattered Clouds,220,2012-11-27 21:53:00
4:13 PM,33.8,21.2,60,30.10,10.0,SSW,5.8,-,N/A,,Scattered Clouds,200,2012-11-27 22:13:00
4:33 PM,32.0,21.2,64,30.11,10.0,Calm,Calm,-,N/A,,Unknown,0,2012-11-27 22:33:00
4:53 PM,30.2,21.2,69,30.11,10.0,Calm,Calm,-,N/A,,Unknown,0,2012-11-27 22:53:00
5:13 PM,30.2,21.2,69,30.12,10.0,WSW,3.5,-,N/A,,Mostly Cloudy,240,2012-11-27 23:13:00
5:53 PM,30.2,21.2,69,30.12,10.0,SW,3.5,-,N/A,,Overcast,220,2012-11-27 23:53:00
6:13 PM,28.4,21.2,74,30.12,10.0,Calm,Calm,-,N/A,,Unknown,0,2012-11-28 00:13:00
6:33 PM,28.4,21.2,74,30.12,10.0,WSW,5.8,-,N/A,,Unknown,240,2012-11-28 00:33:00
6:53 PM,28.4,21.2,74,30.13,10.0,WSW,5.8,-,N/A,,Clear,240,2012-11-28 00:53:00
7:13 PM,28.4,21.2,74,30.14,10.0,WSW,6.9,-,N/A,,Clear,240,2012-11-28 01:13:00
7:33 PM,28.4,21.2,74,30.14,10.0,WSW,6.9,-,N/A,,Clear,250,2012-11-28 01:33:00
7:53 PM,28.4,21.2,74,30.15,10.0,West,6.9,-,N/A,,Clear,270,2012-11-28 01:53:00
8:13 PM,26.6,21.2,80,30.16,10.0,West,4.6,-,N/A,,Clear,270,2012-11-28 02:13:00
8:33 PM,26.6,21.2,80,30.16,10.0,West,3.5,-,N/A,,Clear,260,2012-11-28 02:33:00
8:53 PM,24.8,21.2,86,30.17,10.0,West,3.5,-,N/A,,Clear,270,2012-11-28 02:53:00
9:13 PM,24.8,21.2,86,30.18,10.0,West,3.5,-,N/A,,Clear,260,2012-11-28 03:13:00
9:33 PM,24.8,19.4,80,30.18,10.0,WSW,3.5,-,N/A,,Clear,250,2012-11-28 03:33:00
9:53 PM,24.8,21.2,86,30.19,10.0,WSW,3.5,-,N/A,,Clear,250,2012-11-28 03:53:00
10:13 PM,24.8,21.2,86,30.20,10.0,West,3.5,-,N/A,,Clear,260,2012-11-28 04:13:00
10:33 PM,24.8,21.2,86,30.21,10.0,West,3.5,-,N/A,,Clear,260,2012-11-28 04:33:00
10:53 PM,24.8,21.2,86,30.21,10.0,West,3.5,-,N/A,,Clear,260,2012-11-28 04:53:00
11:13 PM,21.2,19.4,93,30.22,10.0,West,4.6,-,N/A,,Clear,280,2012-11-28 05:13:00
11:33 PM,21.2,19.4,93,30.23,10.0,Calm,Calm,-,N/A,,Clear,0,2012-11-28 05:33:00
11:53 PM,21.2,19.4,93,30.24,10.0,West,3.5,-,N/A,,Clear,280,2012-11-28 05:53:00